This demonstration page uses our WeatherBlox Daily Observations layout. Learn more.

Left ArrowRight Arrow

34.74481, -87.66753

Hourly Observations for July 19, 2022

Temp ( °F °C ) Dew Point ( °F °C ) Humidity (%) Winds ( mph kmh ) Pressure ( in mb ) Visibility ( mi km ) Precip ( " mm )
12:53 am 00:53 Mostly Clear 77 25 72 22.2 85 85 SW 7 11 29.93 1014 10 16 0.05 1.27
1:53 am 01:53 Mostly Clear 74 23.3 69 20.6 85 85 Calm 29.93 1014 10 16 0.00 0.00
2:53 am 02:53 Mostly Cloudy 74 23.3 70 21.1 88 88 S 5 7 29.91 1013 10 16 0.00 0.00
3:53 am 03:53 Mostly Cloudy 74 23.3 69 20.6 85 85 Calm 29.92 1013 10 16 0.00 0.00
4:53 am 04:53 Mostly Cloudy 73 22.8 69 20.6 87 87 Calm 29.93 1014 10 16 0.00 0.00
5:53 am 05:53 Mostly Sunny 73 22.8 70 21.1 90 90 SSW 5 7 29.94 1014 10 16 0.00 0.00
6:37 am 06:37 Mostly Cloudy 73 22.8 71 21.7 94 94 Calm 29.95 1014 10 16 0.00 0.00
6:53 am 06:53 Cloudy 74 23.3 71 21.7 91 91 E 3 6 29.94 1014 10 16 0.00 0.00
7:39 am 07:39 Cloudy 76 24.4 72 22.2 88 88 Calm 29.96 1015 10 16 0.00 0.00
7:53 am 07:53 Cloudy 77 25 73 22.8 88 88 SSW 3 6 29.97 1015 10 16 0.00 0.00
8:03 am 08:03 Cloudy 77 25 73 22.8 88 88 SSW 5 7 29.97 1015 10 16 0.00 0.00
8:53 am 08:53 Cloudy 81 27.2 75 23.9 82 82 SW 9 15 29.97 1015 10 16 0.00 0.00
9:44 am 09:44 Mostly Cloudy 84 28.9 74 23.3 72 72 W 12 19 29.96 1015 10 16 0.00 0.00
9:53 am 09:53 Mostly Cloudy 84 28.9 74 23.3 72 72 WSW 10 17 29.97 1015 10 16 0.00 0.00
10:53 am 10:53 Mostly Cloudy 85 29.4 72 22.2 65 65 WSW 18 30 29.98 1015 10 16 0.00 0.00
11:53 am 11:53 Cloudy 82 27.8 69 20.6 65 65 WSW 20 31 29.99 1016 10 16 0.00 0.00
12:51 pm 12:51 Cloudy with Heavy Rain 75 24 70 21 83 83 SW 15 24 29.97 1015 2 3 0.10 2.54
12:53 pm 12:53 Cloudy with Heavy Rain 75 23.9 69 20.6 82 82 SW 16 26 29.96 1015 2 2 0.11 2.79
1:06 pm 13:06 Cloudy with Light Rain 75 23.9 69 20.6 82 82 SSW 16 26 29.96 1015 3 5 0.08 2.03
1:53 pm 13:53 Mostly Sunny 80 26.7 73 22.8 79 79 SW 7 11 29.94 1014 10 16 0.08 2.03
2:53 pm 14:53 Mostly Sunny 87 30.6 72 22.2 61 61 WSW 15 24 29.91 1013 10 16 0.00 0.00
3:53 pm 15:53 Sunny 89 31.7 71 21.7 55 55 SW 14 22 29.89 1012 10 16 0.00 0.00
4:53 pm 16:53 Mostly Sunny 90 32.2 72 22.2 56 56 WSW 14 22 29.88 1012 10 16 0.00 0.00
5:53 pm 17:53 Mostly Cloudy 89 31.7 71 21.7 55 55 SW 12 19 29.88 1012 10 16 0.00 0.00
6:53 pm 18:53 Sunny 85 29.4 70 21.1 61 61 SSW 12 19 29.88 1012 10 16 0.00 0.00
7:53 pm 19:53 Sunny 82 27.8 70 21.1 67 67 S 5 7 29.87 1012 10 16 0.00 0.00
8:53 pm 20:53 Clear 80 26.7 71 21.7 74 74 S 3 6 29.89 1012 10 16 0.00 0.00
9:53 pm 21:53 Clear 76 24.4 72 22.2 88 88 ESE 5 7 29.91 1013 10 16 0.00 0.00
10:53 pm 22:53 Clear 77 25 72 22.2 85 85 E 3 6 29.91 1013 10 16 0.00 0.00
11:53 pm 23:53 Clear 77 25 72 22.2 85 85 Calm 29.91 1013 10 16 0.00 0.00

Powered by AerisWeather